CFG1LJ EDDH-LGKL

Flight info

Callsign CFG1LJ
Flight time N/A
Altitude 33000
Route AMLUH2G AMLUH M852 DENIX DCT ZUCKA DCT ARMUT DCT LAMSI DCT MAGAM DCT PETAK DCT PITAS UN732 KRK UA14 ARA UL612 TRL J61 IPTAG
Aircraft A21N/M-SBDE3FGHIJ1J4J7LORVWXYZ/SB2D1G1

Departure

Time N/A
Airport Hamburg Helmut Schmidt Airport (EDDH)

Arrival

Time 2026-05-01 08:04
Airport Kalamata Airport (LGKL)
Time Latitude Longitude Altitude Speed Heading
2026-05-01 07:23 39.98963 19.81978 33057 ft 479 kts 176°
2026-05-01 07:24 39.89184 19.84862 33046 ft 487 kts 169°
2026-05-01 07:24 39.82815 19.88025 33039 ft 490 kts 166°
2026-05-01 07:25 39.76464 19.91265 33021 ft 490 kts 166°
2026-05-01 07:25 39.70138 19.94440 33022 ft 489 kts 167°
2026-05-01 07:26 39.63768 19.97625 33025 ft 489 kts 167°
2026-05-01 07:26 39.57415 20.00801 32979 ft 489 kts 167°
2026-05-01 07:27 39.51071 20.03969 33041 ft 487 kts 167°
2026-05-01 07:27 39.44814 20.07281 33045 ft 493 kts 161°
2026-05-01 07:27 39.41869 20.09672 33042 ft 505 kts 149°
2026-05-01 07:28 39.39112 20.12539 33049 ft 508 kts 146°
2026-05-01 07:28 39.33705 20.18327 33005 ft 507 kts 147°
2026-05-01 07:29 39.28151 20.24084 33038 ft 511 kts 148°
2026-05-01 07:29 39.22612 20.29784 33052 ft 511 kts 148°
2026-05-01 07:30 39.17047 20.35514 33053 ft 511 kts 148°
2026-05-01 07:30 39.11513 20.41213 33063 ft 511 kts 148°
2026-05-01 07:31 39.05943 20.46942 33032 ft 512 kts 148°
2026-05-01 07:32 38.91845 20.61021 33070 ft 514 kts 149°
2026-05-01 07:33 38.83403 20.69557 33055 ft 515 kts 148°
2026-05-01 07:33 38.75007 20.78192 33058 ft 515 kts 148°
2026-05-01 07:34 38.66638 20.86754 33070 ft 515 kts 148°
2026-05-01 07:35 38.61021 20.92491 33078 ft 516 kts 148°
2026-05-01 07:35 38.55553 20.98487 33077 ft 518 kts 145°
2026-05-01 07:36 38.50114 21.04624 33062 ft 523 kts 145°
2026-05-01 07:36 38.44686 21.10744 33068 ft 523 kts 145°
2026-05-01 07:37 38.36485 21.19950 33060 ft 523 kts 145°
2026-05-01 07:37 38.31017 21.26074 33044 ft 523 kts 145°
2026-05-01 07:38 38.25560 21.32175 32992 ft 520 kts 146°
2026-05-01 07:39 38.17389 21.41270 33020 ft 522 kts 146°
2026-05-01 07:39 38.09433 21.50827 33022 ft 524 kts 142°
2026-05-01 07:40 38.04195 21.57227 33073 ft 524 kts 142°
2026-05-01 07:40 37.98939 21.63632 32624 ft 525 kts 142°
2026-05-01 07:41 37.96294 21.66848 32214 ft 526 kts 142°
2026-05-01 07:41 37.93685 21.70021 31554 ft 525 kts 142°
2026-05-01 07:41 37.88399 21.76431 30010 ft 524 kts 142°
2026-05-01 07:42 37.85759 21.79624 29140 ft 523 kts 142°
2026-05-01 07:42 37.83170 21.82759 28410 ft 518 kts 142°
2026-05-01 07:42 37.80582 21.85893 27772 ft 511 kts 142°
2026-05-01 07:42 37.78029 21.88975 27111 ft 505 kts 141°
2026-05-01 07:43 37.75490 21.92031 26447 ft 500 kts 141°
2026-05-01 07:43 37.72982 21.95049 25795 ft 495 kts 141°
2026-05-01 07:43 37.68070 22.00952 24501 ft 485 kts 141°
2026-05-01 07:44 37.63230 22.06757 23178 ft 475 kts 141°
2026-05-01 07:44 37.58487 22.12441 21834 ft 463 kts 140°
2026-05-01 07:45 37.56164 22.15220 21191 ft 458 kts 140°
2026-05-01 07:45 37.53878 22.17952 20578 ft 452 kts 140°
2026-05-01 07:45 37.51612 22.20660 20017 ft 446 kts 140°
2026-05-01 07:45 37.49368 22.23335 19466 ft 439 kts 140°
2026-05-01 07:46 37.47156 22.25963 18938 ft 432 kts 140°
2026-05-01 07:46 37.44982 22.28524 18436 ft 425 kts 142°
2026-05-01 07:46 37.39937 22.31576 17309 ft 389 kts 179°
2026-05-01 07:47 37.37327 22.31486 16812 ft 372 kts 198°
2026-05-01 07:47 37.34976 22.30361 16347 ft 356 kts 217°
2026-05-01 07:47 37.33118 22.28402 15915 ft 345 kts 230°
2026-05-01 07:47 37.31416 22.26276 15490 ft 344 kts 228°
2026-05-01 07:48 37.27792 22.22359 14592 ft 343 kts 223°
2026-05-01 07:48 37.25930 22.20531 14096 ft 344 kts 222°
2026-05-01 07:48 37.24024 22.18708 13610 ft 344 kts 221°
2026-05-01 07:49 37.22106 22.16892 13109 ft 343 kts 221°
2026-05-01 07:49 37.18321 22.13320 12197 ft 341 kts 221°
2026-05-01 07:49 37.16423 22.11545 11712 ft 340 kts 220°
2026-05-01 07:50 37.14528 22.09772 11265 ft 338 kts 220°
2026-05-01 07:50 37.10873 22.06363 10755 ft 315 kts 220°
2026-05-01 07:50 37.09149 22.04759 10579 ft 301 kts 220°
2026-05-01 07:51 37.07454 22.03358 10418 ft 292 kts 210°
2026-05-01 07:51 37.05501 22.02731 10181 ft 292 kts 186°
2026-05-01 07:51 37.03469 22.03021 9806 ft 294 kts 173°
2026-05-01 07:52 36.99474 22.04097 9051 ft 292 kts 172°
2026-05-01 07:52 36.97528 22.04604 8716 ft 286 kts 173°
2026-05-01 07:52 36.95594 22.05099 8320 ft 281 kts 173°
2026-05-01 07:53 36.91695 22.06041 7620 ft 282 kts 173°
2026-05-01 07:53 36.89765 22.06490 7285 ft 282 kts 173°
2026-05-01 07:53 36.87859 22.06931 6930 ft 282 kts 172°
2026-05-01 07:53 36.85930 22.07377 6575 ft 282 kts 172°
2026-05-01 07:54 36.82151 22.07058 5809 ft 269 kts 208°
2026-05-01 07:55 36.77424 22.03551 4647 ft 257 kts 213°
2026-05-01 07:55 36.74462 22.01293 3834 ft 244 kts 208°
2026-05-01 07:56 36.70315 22.02712 3115 ft 209 kts 117°
2026-05-01 07:56 36.70680 22.05954 2697 ft 200 kts 47°
2026-05-01 07:57 36.71788 22.06998 2627 ft 199 kts 32°
2026-05-01 07:57 36.74454 22.07717 2880 ft 198 kts 359°
2026-05-01 07:58 36.77207 22.07828 3061 ft 199 kts
2026-05-01 07:58 36.79960 22.08206 3042 ft 201 kts 360°
2026-05-01 07:59 36.82742 22.07991 3034 ft 199 kts 351°
2026-05-01 07:59 36.85497 22.07493 3021 ft 199 kts 348°
2026-05-01 08:00 36.90947 22.06242 2902 ft 200 kts 347°
2026-05-01 08:01 36.94793 22.05347 2165 ft 174 kts 347°
2026-05-01 08:01 36.95959 22.05075 1991 ft 162 kts 348°
2026-05-01 08:01 36.97015 22.04829 1745 ft 152 kts 347°
2026-05-01 08:02 36.99078 22.04355 1360 ft 151 kts 348°
2026-05-01 08:02 37.00106 22.04111 1133 ft 149 kts 348°
2026-05-01 08:03 37.02118 22.03634 798 ft 146 kts 348°
2026-05-01 08:03 37.03110 22.03408 613 ft 144 kts 349°
2026-05-01 08:03 37.05057 22.02954 196 ft 141 kts 348°
2026-05-01 08:04 37.06872 22.02532 39 ft 103 kts 349°
2026-05-01 08:04 37.07647 22.02347 38 ft 31 kts 348°
2026-05-01 08:05 37.07899 22.02337 39 ft 9 kts 64°
2026-05-01 08:05 37.07890 22.02410 38 ft 10 kts 133°
2026-05-01 08:05 37.07822 22.02437 39 ft 11 kts 170°
2026-05-01 08:06 37.07650 22.02477 39 ft 14 kts 169°
2026-05-01 08:06 37.07445 22.02525 39 ft 16 kts 169°
2026-05-01 08:07 37.07247 22.02570 39 ft 18 kts 169°
2026-05-01 08:07 37.06936 22.02645 39 ft 21 kts 169°
2026-05-01 08:08 37.06838 22.02667 39 ft 21 kts 170°
2026-05-01 08:08 37.06534 22.02737 39 ft 23 kts 169°
2026-05-01 08:09 37.06207 22.02814 39 ft 16 kts 170°
2026-05-01 08:09 37.06107 22.02837 38 ft 15 kts 170°
2026-05-01 08:09 37.05999 22.02862 39 ft 16 kts 169°
2026-05-01 08:10 37.05771 22.02914 36 ft 17 kts 169°
2026-05-01 08:10 37.05581 22.02959 39 ft 10 kts 160°
2026-05-01 08:11 37.05524 22.03117 40 ft 8 kts 106°
2026-05-01 08:11 37.05503 22.03233 40 ft 6 kts 97°
2026-05-01 08:12 37.05530 22.03266 40 ft 4 kts 310°
2026-05-01 08:12 37.05533 22.03259 40 ft 0 kts 293°